Desroches Airport

Jump to: basic info | weather | runways | comments

Related pages: nearby airports | nearby navaids | notams | map

Basic information (top)

Codes: DES FSDR
Location: lon -5.696700, lat 53.655800, elev 10 ft / 3 m msl
Status: small_airport
Scheduled airline service: no
Links: Wikipedia Mobile

Weather (top)

Current conditions for Seychelles International Airport 127nm (236km) ENE (rec'd 2014/10/24 10:00Z):

FSIA 241000Z 12012KT 9999 FEW019 30/22 Q1010 NOSIG

Airport forecast for Seychelles International Airport 127nm (236km) ENE (rec'd 2014/10/24 06:00Z):

TAF FSIA 240358Z 2406/2506 16015KT 9999 SCT019 
      BECMG 2418/2420 18005KT

Runways (top)

12/30: 4,531 x 33 ft (1,381 x 10 m) — paved — not lighted

Latest comments (top)

No comments yet for Desroches Airport

More... (top)

See also NOTAMs and nearby airports and navaids, or visit the Desroches Airport page at the main OurAirports website..